Weather History for Wilmington, NC

Change the Weather History Date:

Saturday, May 17, 2014

  Actual Average Record
Temperature  
Mean Temperature 65 °F 71 °F  
Max Temperature 76 °F 81 °F 92 °F (1960)
Min Temperature 54 °F 60 °F 44 °F (1984)
Degree Days  
Heating Degree Days 0 1  
Month to date heating degree days 0 23  
Since 1 July heating degree days 2432 2405  
Cooling Degree Days 0 6  
Month to date cooling degree days 170 83  
Year to date cooling degree days 285 171  
Growing Degree Days 14 (Base 50)    
Moisture  
Dew Point 43 °F    
Average Humidity 57    
Maximum Humidity 86    
Minimum Humidity 27    
Precipitation  
Precipitation 0.00 in 0.16 in 2.51 in (1922)
Month to date precipitation 2.05 2.22  
Year to date precipitation 18.80 16.63  
Sea Level Pressure  
Sea Level Pressure 30.13 in    
Wind  
Wind Speed 8 mph (NW)    
Max Wind Speed 20 mph    
Max Gust Speed 26 mph    
Visibility 10 miles    
Events      
T = Trace of Precipitation, MM = Missing Value Source: NWS Daily Summary

Daily Weather History Graph

Daily Weather History Graph

Search for Another Location

Airport:

Trip Planner

Search our weather history database for the weather conditions in past years. The results will help you decide how hot, cold, wet, or windy it might be!

Date:

Astronomy

May. 17, 2014 Rise Set
Actual Time 6:08 AM EDT 8:08 PM EDT
Civil Twilight 5:40 AM EDT 8:36 PM EDT
Nautical Twilight 5:06 AM EDT 9:10 PM EDT
Astronomical Twilight 4:30 AM EDT 9:46 PM EDT
Moon 11:08 PM EDT (5/17) 8:48 AM EDT (5/17)
Length of Visible Light 14h 55m
Length of Day
14h 00m
Waning Gibbous, 89% of the Moon is Illuminated
May 17
Waning Gibbous
May 21
Last Quarter
May 28
New
Jun 5
First Quarter
Jun 13
Full

Hourly Weather History & Observations

Time (EDT) Temp. Dew Point Humidity Pressure Visibility Wind Dir Wind Speed Gust Speed Precip Events Conditions
12:53 AM 63.0 °F 48.0 °F 58% 30.06 in 10.0 mi West 8.1 mph - N/A   Clear
1:53 AM 63.0 °F 46.9 °F 56% 30.05 in 10.0 mi WNW 10.4 mph - N/A   Clear
2:53 AM 61.0 °F 46.9 °F 60% 30.06 in 10.0 mi WNW 8.1 mph - N/A   Clear
3:53 AM 59.0 °F 45.0 °F 60% 30.07 in 10.0 mi WNW 10.4 mph - N/A   Clear
4:53 AM 55.9 °F 45.0 °F 67% 30.09 in 10.0 mi NW 6.9 mph - N/A   Clear
5:53 AM 55.0 °F 45.0 °F 69% 30.11 in 10.0 mi WNW 8.1 mph - N/A   Clear
6:53 AM 55.9 °F 43.0 °F 62% 30.14 in 10.0 mi NW 10.4 mph - N/A   Clear
7:53 AM 57.9 °F 42.1 °F 56% 30.14 in 10.0 mi NW 11.5 mph - N/A   Clear
8:53 AM 62.1 °F 39.9 °F 44% 30.17 in 10.0 mi NNW 13.8 mph - N/A   Clear
9:53 AM 64.9 °F 37.0 °F 36% 30.17 in 10.0 mi NNW 13.8 mph - N/A   Clear
10:53 AM 68.0 °F 37.9 °F 33% 30.17 in 10.0 mi NW 12.7 mph - N/A   Clear
11:53 AM 70.0 °F 39.0 °F 32% 30.17 in 10.0 mi NW 10.4 mph - N/A   Clear
12:53 PM 71.1 °F 36.0 °F 28% 30.15 in 10.0 mi NW 11.5 mph - N/A   Clear
1:53 PM 73.0 °F 37.0 °F 27% 30.14 in 10.0 mi North 15.0 mph 21.9 mph N/A   Clear
2:53 PM 75.9 °F 39.9 °F 27% 30.14 in 10.0 mi NW 10.4 mph 23.0 mph N/A   Clear
3:53 PM 75.9 °F 39.9 °F 27% 30.12 in 10.0 mi NNW 12.7 mph 17.3 mph N/A   Clear
4:53 PM 75.0 °F 39.0 °F 27% 30.12 in 10.0 mi NW 6.9 mph - N/A   Clear
5:53 PM 75.0 °F 41.0 °F 29% 30.11 in 10.0 mi Variable 5.8 mph - N/A   Clear
6:53 PM 73.0 °F 42.1 °F 33% 30.12 in 10.0 mi WNW 9.2 mph - N/A   Clear
7:53 PM 70.0 °F 44.1 °F 39% 30.13 in 10.0 mi WNW 5.8 mph - N/A   Clear
8:53 PM 64.0 °F 50.0 °F 60% 30.15 in 10.0 mi Calm Calm - N/A   Clear
9:53 PM 60.8 °F 53.6 °F 77% 30.16 in 10.0 mi Calm Calm - N/A   Clear
10:53 PM 59.0 °F 52.0 °F 78% 30.17 in 10.0 mi Calm Calm - N/A   Clear
11:53 PM 57.9 °F 53.1 °F 84% 30.18 in 10.0 mi Calm Calm - N/A   Clear